Location: Klein M�hlingen
(51.9472°N, 11.7453°E)
Time: 21:03:57
(UTC+00:00)

ISS - Pass Details

Date: 28 September 2021
Orbit: 417 x 423 km, 51.6° (Epoch: 19 October)

Event Time Altitude Azimuth Distance (km) Brightness Sun altitude
Rises 17:22:54 0° 269° (W) 2,363 3.0 -4.8°
Reaches altitude 10° 17:24:59 10° 269° (W) 1,500 1.0 -5.1°
Maximum altitude 17:28:21 88° 185° (S) 425 -3.7 -5.6°
Drops below altitude 10° 17:31:44 10° 92° (E) 1,502 -1.6 -6.2°
Enters shadow 17:32:05 - 92° (E) 1,641 -1.5 -6.2°
